Regional Weather Roundup
Issued by NWS

Home | Current Version | Previous Version | Text Only | Print | Product List | Glossary On
Versions: 1 2 3 4 5 6 7 8 9 10 11 12 13 14 15 16 17 18 19 20 21 22 23 24 25 26 27
000
ASUS44 KLIX 040911
RWRLA
LOUISIANA WEATHER ROUNDUP
NATIONAL WEATHER SERVICE NEW ORLEANS LA
400 AM CDT WED MAY 04 2016

NOTE: "FAIR" INDICATES FEW OR NO CLOUDS BELOW 12,000 FEET WITH NO
      SIGNIFICANT WEATHER AND/OR OBSTRUCTIONS TO VISIBILITY.
      SKY/WX - SKY CONDITION AND SIGNIFICANT WEATHER.
      TMP - AIR TEMPERATURE.    DP   - DEWPOINT TEMPERATURE.
      RH  - RELATIVE HUMIDITY.  PRES - PRESSURE.
      HX  - HEAT INDEX.         WCI  - WIND CHILL INDEX.

*  THESE STATIONS ARE NOT NWS OR FAA STATIONS AND ARE NOT UNDER
   NWS QUALITY CONTROL.

LAZ040-048-061>063-065-066-069-041000-
SOUTHEAST LOUISIANA

CITY           SKY/WX    TMP DP  RH WIND       PRES   REMARKS
N.O. AUDUBON     N/A     64  56  74 MISG        N/A
N.O. INTL ARPT MOCLDY    65  53  65 N16       29.95S
N.O. LAKEFRONT MOCLDY    62  54  74 N20       29.95S
N.O. DOWNTOWN* FAIR      65  55  70 N7        29.95S
RESERVE*       FAIR      62  55  76 N6        29.96S
SLIDELL        MOCLDY    60  55  83 N8        29.93F
BATON ROUGE    CLEAR     57  51  80 CALM      29.97S
BOOTHVILLE     CLEAR     68  59  73 N12G18    29.90S
BELLE CHASSE   CLEAR     63  55  75 N6        29.93F
BOGALUSA*      FAIR      57  52  84 N3        29.96F
GALLIANO*      SUNNY     66  61  84 N3        29.93R
NEW ROADS*     FAIR      58  52  81 N6        29.99S
GONZALES*      FAIR      59  53  78 N5        29.95F
HAMMOND*       CLEAR     55  52  88 CALM      29.95S
HOUMA*           N/A     61  58  91 N7        29.94S
PORT FOURCHON* MOSUNNY   70  61  73 N16G22    29.92S

$$

LAZ041-044-053-054-041000-
SOUTHWEST LOUISIANA

CITY           SKY/WX    TMP DP  RH WIND       PRES   REMARKS
LAKE CHARLES   CLEAR     59  51  75 N6        29.99F
LAFAYETTE      PTCLDY    61  56  83 N6        29.98S
PATTERSON      NOT AVBL
SALT POINT       N/A     62  59  90 VRB5      29.94F
NEW IBERIA     PTCLDY    59  56  89 N6        29.98F
CHENAULT AIRPK CLEAR     58  51  78 N5        30.00S

$$

LAZ027-028-041000-
CENTRAL LOUISIANA

CITY           SKY/WX    TMP DP  RH WIND       PRES   REMARKS
FORT POLK      CLEAR     53  51  90 N6        30.01S
ALEXANDRIA INT CLEAR     53  52  96 CALM      29.99F
ALEXANDRIA     CLEAR     55  51  86 CALM      30.00F

$$

LAZ001-002-041000-
NORTHWEST LOUISIANA

CITY           SKY/WX    TMP DP  RH WIND       PRES   REMARKS
SHREVEPORT     MOCLDY    59  52  77 W5        30.01F
BARKSDALE AFB  MOCLDY    60  52  74 CALM      30.00F
DTN SHREVEPORT MOCLDY    59  52  77 CALM      30.01F

$$

LAZ014-016-041000-
NORTHEAST LOUISIANA

CITY           SKY/WX    TMP DP  RH WIND       PRES   REMARKS
MONROE         PTCLDY    55  54  96 CALM      30.00F
TALLULAH       CLEAR     54  51  90 E7        29.98F

$$





USA.gov is the U.S. government's official web portal to all federal, state and local government web resources and services.